Weather Roundup
Issued by NWS Corpus Christi, TX

Home | Current Version | Previous Version | Text Only | Print | Product List | Glossary On
Versions: 1 2 3 4 5 6 7 8 9 10 11 12 13 14 15 16 17 18 19 20 21 22 23 24 25 26 27 28 29 30 31 32 33 34 35 36 37 38 39 40 41 42 43 44 45 46 47 48 49 50
000
ASUS44 KCRP 091110
HRRCRP

SOUTH TEXAS REGIONAL WEATHER ROUNDUP
NATIONAL WEATHER SERVICE CORPUS CHRISTI TX
500 AM CST TUE FEB 09 2016


TXZ229>244-091200-
...CORPUS CHRISTI AREA OBSERVATIONS...

CITY           SKY/WX    TMP DP  RH WIND       PRES   REMARKS
CORPUS CHRISTI PTCLDY    42  24  49 NW6       30.35S
NAS CORPUS CHR PTCLDY    44  35  70 W6        30.35R
ROCKPORT       PTCLDY    49  34  56 NW6       30.35R
KINGSVILLE NAS PTCLDY    42  28  57 NW8       30.35S
ALICE            N/A     43  24  47 NW9       30.35R
FALFURRIAS     CLOUDY    45  26  49 W5        30.36R
$$

...VICTORIA AREA OBSERVATIONS...

CITY           SKY/WX    TMP DP  RH WIND       PRES   REMARKS
VICTORIA       CLEAR     36  27  69 W7        30.35R
BEEVILLE       FAIR      41  28  58 NW6       30.35R
PLEASANTON     CLEAR     37  26  63 NW7       30.37R
SAN ANTONIO    CLEAR     39  23  52 NW8       30.35R
$$

...LAREDO AREA OBSERVATIONS...

CITY           SKY/WX    TMP DP  RH WIND       PRES   REMARKS
LAREDO         CLEAR     43  24  47 CALM      30.39R
COTULLA        CLEAR     38  23  55 W7        30.38R
DEL RIO        CLEAR     37  27  67 NW3       30.39R
MCALLEN        MOCLDY    51  32  48 W5        30.37S
HEBBRONVILLE   NOT AVBL
$$

...OTHER TEXAS OBSERVATIONS...

CITY           SKY/WX    TMP DP  RH WIND       PRES   REMARKS
BROWNSVILLE    CLOUDY    49  33  54 W5        30.36S
HOUSTON        PTCLDY    43  16  33 N16       30.28S
COL. STATION   CLEAR     40  16  37 NW9       30.32R
AUSTIN         CLEAR     40  21  46 W7        30.34R
WACO           CLEAR     29  18  63 W9        30.34R
FORT WORTH     CLEAR     40   9  28 W10       30.28F WCI  33
WICHITA FALLS  CLEAR     33  15  47 W12       30.29F WCI  24
LUBBOCK        CLEAR     29  18  63 W8        30.36S
EL PASO        PTCLDY    34  14  43 CALM      30.34F
$$

...MARINE OBSERVATIONS...

STATION/POSITION TIME  SKY/WX   TEMP    WIND        PRES    VSBY  WAVE   SWELL
                                AIR SEA DIR/SP/G                  HT/PER HT/PER
                 (UTC)          (F)     (DEG/KT/KT) (MB)    (MI)  (FT/S) (FT/S)
PORT ARANSAS     1100            51 58  320/  6/  7 1028.2R
BUOY 90 E PORT A 1050            61 68  330/ 17/ 21 1026.0R         4/ 4
BUOY 45 SE BAFFI 1050            62 69  290/  8/ 10 1026.9S         3/ 6   3/ 6
BUOY 200 E PT IS 1050                                 N/A           9/ 8   3/14
BUOY 15 E GALVES 1050            53 56  310/ 17/ 23 1024.8R         2/ 3
$$



USA.gov is the U.S. government's official web portal to all federal, state and local government web resources and services.